Torna al catalogo

DELTA 1 DEB

AttivoPO
NORAD 21342·DEBRIS·🇺🇸 United States

Lanciato Jun 12, 1975 da Vandenberg Space Force Base

Loading…

Prossimi Passaggi (prossime 24 ore)

TLE

AggiornatoSource: Space-Track

Epoca: Sep 14, 2026, 08:40 UTC

1 21342U 75052BL  26257.36153441  .00002411  00000-0  71071-3 0  9997
2 21342  99.9974 290.5685 0119230  25.4211 347.8726 14.40746868818111

Traccia DELTA 1 DEB in tempo reale con AllMySat

Download on the App Store